Wind_Speed
11 11 11 11 12 11 9 9 9 9 9 9 9 9 8 8 7 8 7 8 8 8 8 8 8 8 8 7 6 5 5 6 6 6 6 5 5 5 6 6 6 6 6 6 7 8 8 8 9
11 11 11 11 13 10 9 9 10 10 10 10 10 9 9 8 7 7 7 7 8 8 8 7 8 8 8 7 7 6 6 7 7 7 6 6 5 5 5 6 6 6 6 6 7 7 9 9 9
10 10 10 11 11 9 9 9 9 10 10 10 10 9 9 9 8 7 7 7 8 7 7 7 7 8 7 8 8 7 7 8 8 8 7 6 6 5 6 6 6 6 7 7 7 8 9 9 9
10 9 10 11 9 9 9 9 9 9 10 10 9 9 9 9 9 8 8 8 8 7 7 7 7 7 8 8 9 8 8 9 9 8 8 7 6 6 7 6 6 6 7 8 8 8 9 9 8
10 10 11 10 9 9 8 9 9 9 10 10 9 9 9 9 9 8 8 7 7 7 7 6 6 7 8 8 9 8 8 9 10 9 8 8 7 6 5 6 7 7 8 8 8 8 9 9 8
9 10 11 9 9 9 9 9 9 10 10 10 10 10 9 9 9 9 8 7 7 7 6 5 5 6 7 7 8 8 8 9 9 9 8 8 7 6 5 5 6 8 8 8 8 8 7 8 8
9 10 9 8 8 9 8 9 9 10 10 11 11 10 9 9 9 9 8 8 7 6 6 6 6 6 6 7 7 7 8 8 8 8 8 8 8 8 7 7 6 7 7 8 8 8 8 7 6
9 10 9 8 8 8 8 8 9 10 11 11 11 10 10 10 9 9 9 8 8 7 6 6 6 6 6 7 7 7 7 8 8 8 8 8 9 9 9 8 7 7 7 7 8 8 7 6 5
9 10 8 7 8 8 8 8 8 9 10 10 11 10 10 9 10 9 9 8 8 8 7 7 7 6 6 7 7 7 7 7 8 8 8 8 8 9 9 9 8 8 8 8 8 7 6 5 5
9 9 7 7 7 7 7 8 8 9 10 10 10 10 10 9 9 9 9 8 8 8 8 7 7 7 6 7 7 7 7 7 7 7 7 7 7 8 7 7 7 7 7 6 7 6 6 5 6
8 7 7 7 7 7 7 8 9 9 9 9 9 10 10 9 9 9 9 9 8 8 8 8 7 7 7 6 6 6 6 6 7 7 7 7 6 6 6 6 6 5 5 5 6 7 6 5 5
6 5 5 6 6 7 7 8 9 9 9 9 9 9 9 9 9 9 8 9 8 8 8 8 8 7 7 7 6 5 5 5 5 6 6 6 5 5 5 5 4 4 4 4 5 6 5 4 4
4 4 4 4 4 5 6 7 8 9 8 9 9 9 9 8 8 8 8 8 8 8 8 8 7 7 7 7 7 6 5 4 5 5 5 5 5 5 4 4 4 3 3 3 3 3 3 3 3
3 3 3 3 3 3 5 6 7 8 7 7 8 8 8 7 7 8 8 7 7 7 7 7 7 7 7 7 7 6 5 5 5 5 5 4 4 4 4 4 3 3 3 2 3 2 2 3 2
2 2 2 2 2 2 3 4 5 6 6 6 6 6 6 7 7 7 7 7 6 6 6 6 6 6 5 5 5 5 5 4 4 4 4 4 4 3 3 3 3 3 3 3 2 2 2 3 2
2 1 1 2 1 1 2 4 3 4 5 5 5 5 5 6 7 7 7 6 5 5 5 5 5 5 4 4 4 4 3 3 3 3 3 3 3 3 3 3 3 3 3 2 2 1 1 2 2
3 2 3 4 2 1 1 2 2 3 4 4 4 5 5 5 6 6 6 5 4 4 5 5 5 4 4 3 3 3 3 2 2 3 3 3 3 3 3 3 2 2 2 1 1 1 1 1 1
6 5 5 5 4 3 3 2 2 2 3 4 4 4 4 5 5 5 5 5 4 4 4 4 4 4 4 3 3 3 2 2 3 2 3 3 2 2 2 2 2 2 1 0 0 0 0 1 1
8 7 6 6 5 4 4 3 3 3 3 3 4 4 4 5 5 5 5 5 5 4 4 4 4 4 4 4 3 3 3 3 3 2 2 2 2 2 2 2 1 1 1 1 2 2 2 2 3
8 7 7 8 6 5 4 5 5 4 4 4 5 5 5 6 6 5 5 5 5 4 4 4 4 4 4 4 3 3 4 4 3 3 3 3 3 3 3 3 3 2 2 3 3 3 3 4 4
10 9 9 9 7 6 5 6 6 5 5 6 6 6 6 7 7 6 6 6 5 5 5 5 5 5 5 5 4 4 4 4 4 4 4 5 4 4 4 4 4 4 4 4 4 4 4 5 6
10 10 10 9 7 7 6 7 7 6 6 7 7 7 8 8 7 7 7 7 7 6 6 7 6 6 6 6 6 5 5 5 5 6 6 6 6 5 5 6 6 6 6 6 6 6 6 7 7
11 11 10 9 8 7 7 6 8 7 7 7 8 8 8 8 8 8 8 8 8 8 7 7 7 7 7 7 6 6 6 7 7 7 8 8 8 7 8 8 8 8 8 8 8 9 9 9 9
12 11 10 9 8 8 8 7 8 8 8 8 8 9 9 9 9 10 10 10 10 9 9 8 8 8 8 8 8 8 8 8 8 9 9 10 10 9 10 10 11 11 11 11 11 11 11 11 11
11 10 8 8 8 9 9 8 9 9 9 9 9 9 9 9 10 10 10 10 11 11 10 10 10 10 10 11 11 11 11 11 11 10 10 11 11 11 12 12 12 13 13 13 14 14 14 14 13
12 11 10 9 8 9 10 9 9 9 9 9 9 10 11 11 11 12 12 12 12 12 12 12 11 11 12 12 12 13 13 13 12 12 12 12 12 13 13 14 14 14 14 15 16 16 16 16 16
14 13 13 11 10 10 11 11 10 10 10 10 10 11 12 12 12 12 12 13 13 13 13 13 13 13 13 13 13 13 14 15 15 14 14 14 15 16 16 16 16 16 16 16 16 17 17 17 18
15 15 14 12 12 11 12 12 12 12 11 12 12 13 13 13 13 13 13 13 14 14 14 14 14 14 14 15 14 14 14 15 15 15 15 15 16 17 17 17 17 17 17 17 17 17 18 18 19
17 17 17 15 14 12 13 14 14 14 13 13 14 14 15 15 15 15 15 15 15 15 16 16 16 16 16 16 16 16 16 16 16 16 16 17 17 18 18 18 18 18 17 17 18 19 19 20 20
19 19 18 17 17 16 15 16 16 15 15 15 15 15 15 15 16 16 16 16 16 17 17 17 17 17 17 17 17 17 17 17 18 17 17 18 18 18 19 19 19 19 19 19 20 20 21 21 21
Wind_Direction
95 94 91 88 82 76 75 74 72 71 68 67 66 65 63 64 63 59 67 72 77 77 73 70 65 62 60 59 62 80 96 115 123 124 123 125 125 123 127 131 137 143 148 152 160 169 173 170 167
97 94 91 87 80 76 74 75 73 72 69 65 63 60 59 61 62 64 68 71 77 74 69 65 65 60 59 61 64 81 93 106 112 114 115 117 123 122 130 133 139 141 145 148 152 156 160 163 168
100 97 92 86 82 81 78 73 72 70 66 62 60 58 57 58 61 64 65 69 71 67 63 60 64 61 63 70 72 84 94 98 105 108 107 107 106 112 136 133 140 141 145 150 148 148 160 168 175
98 97 92 84 82 81 82 76 71 69 65 62 58 58 58 58 58 64 64 66 63 62 61 61 65 66 67 75 77 87 102 103 105 103 100 98 96 102 122 125 137 139 140 144 145 149 162 167 173
95 93 86 84 84 84 84 81 73 68 64 61 59 58 57 59 58 61 61 61 58 60 63 66 67 68 71 75 78 88 102 108 102 102 97 94 93 95 114 130 139 139 141 142 149 155 162 167 172
96 93 93 90 84 83 83 80 75 69 63 58 56 57 56 59 61 59 59 58 56 60 61 63 65 73 76 82 81 86 94 99 101 101 96 92 89 87 104 130 132 135 147 151 150 159 158 166 170
99 99 99 95 87 83 80 77 73 68 62 56 54 58 60 62 63 60 57 53 54 60 64 62 63 71 83 93 92 93 92 92 95 96 95 88 84 85 98 118 127 127 142 149 150 149 152 153 167
100 95 91 95 93 84 76 71 68 63 60 56 56 61 64 64 64 62 57 53 54 58 64 68 68 78 88 94 97 98 97 91 89 88 89 85 84 87 93 98 102 110 121 132 136 134 147 152 163
100 92 92 93 92 81 71 64 63 58 56 56 59 62 65 64 65 63 61 57 57 54 65 72 77 83 89 89 92 95 94 91 85 82 85 83 82 86 93 95 95 101 108 119 123 124 130 128 138
103 100 96 92 87 80 70 61 59 55 54 56 60 64 65 65 66 63 61 63 63 61 65 72 77 79 83 84 86 86 86 87 82 80 82 81 85 89 92 98 98 103 110 115 121 119 114 108 121
106 102 96 89 83 76 70 61 56 52 52 57 62 66 65 65 64 64 62 65 66 63 62 65 75 74 79 85 83 85 86 85 81 78 81 82 85 88 93 99 104 106 112 115 121 122 119 111 116
111 103 98 95 87 77 70 60 54 51 55 62 65 64 63 61 62 61 58 59 64 63 59 63 71 67 71 77 77 80 81 83 86 83 85 81 78 84 88 87 97 106 115 118 129 127 130 126 125
107 103 103 108 95 78 70 60 52 49 57 62 62 62 63 61 59 56 52 54 56 58 60 60 59 58 60 62 67 73 81 80 76 84 81 84 86 87 89 84 84 92 103 104 118 131 133 129 141
122 105 113 121 108 79 66 54 47 43 48 58 58 55 60 60 57 52 47 48 50 53 54 53 55 57 58 57 58 62 68 73 82 80 80 83 89 89 86 91 95 97 99 94 89 97 107 133 142
136 121 133 145 127 85 64 46 43 40 39 46 50 48 54 53 48 44 41 42 44 47 52 53 52 54 57 59 59 64 66 72 74 68 72 69 73 75 88 90 92 93 95 99 90 82 110 120 124
180 163 251 249 205 86 53 34 36 36 33 35 37 36 34 40 41 40 36 40 41 40 43 46 45 46 54 56 55 63 66 71 76 66 56 65 62 59 50 57 67 73 79 81 81 91 96 97 110
206 216 247 259 252 268 347 1 15 27 27 20 19 21 21 26 29 30 30 35 35 29 26 30 30 33 38 39 43 42 42 51 57 46 47 58 51 49 46 48 55 75 80 82 92 118 104 89 74
219 230 249 260 260 274 293 320 329 347 356 5 0 359 1 4 9 14 17 23 20 13 11 16 19 20 16 9 2 1 9 14 11 21 30 34 36 46 36 26 35 52 55 48 12 19 42 15 334
227 236 246 252 255 269 279 291 296 305 311 326 335 338 338 339 341 347 355 2 4 1 359 2 5 7 5 0 345 332 324 325 337 350 358 3 4 350 344 6 11 16 2 335 327 329 326 315 315
237 240 251 252 254 267 276 286 288 283 282 288 306 315 317 320 324 324 326 330 340 346 342 339 339 341 340 344 337 327 320 320 322 317 311 315 320 320 322 324 327 320 317 312 302 306 308 307 304
234 238 245 250 260 265 269 286 287 284 280 280 290 300 303 304 307 307 306 309 311 314 313 314 319 319 317 316 319 313 306 303 309 310 305 303 301 298 296 297 301 302 303 302 295 292 294 298 296
237 242 243 246 257 271 267 275 284 289 291 288 290 294 297 296 297 298 298 296 294 297 301 303 304 308 310 309 309 301 291 288 291 296 300 301 297 290 288 292 294 294 294 292 289 286 287 288 289
235 242 243 249 258 264 268 269 277 283 294 293 291 294 294 291 291 292 293 290 287 287 292 294 295 298 304 303 301 296 291 288 289 295 298 296 292 286 286 290 289 288 286 285 284 284 283 284 285
233 240 249 255 261 263 263 263 271 279 289 293 292 293 293 289 287 286 288 287 282 281 285 291 292 291 294 294 294 293 291 290 289 291 293 292 291 288 287 288 287 286 283 282 282 281 279 279 281
231 234 250 260 262 266 266 266 268 273 283 291 294 292 290 288 289 288 286 287 286 286 286 289 292 293 292 290 291 292 292 292 289 288 288 289 287 287 288 288 288 287 285 283 283 280 278 278 279
233 230 235 245 257 268 274 273 276 280 282 286 292 292 289 287 289 290 287 286 288 288 290 290 292 293 294 295 291 288 288 291 293 292 288 288 288 289 291 292 291 289 288 287 284 279 278 278 279
233 235 238 246 256 264 269 276 279 286 282 282 286 290 291 288 287 288 287 287 287 286 287 288 290 290 292 294 297 295 288 288 293 293 290 290 291 290 290 291 290 290 287 288 287 283 282 281 280
237 239 242 244 254 263 272 276 280 283 281 279 282 285 287 285 284 286 287 287 286 286 286 287 288 289 290 292 292 292 293 292 293 293 290 290 291 291 289 287 287 289 287 286 288 287 286 287 284
240 242 245 249 252 256 266 273 277 279 279 279 280 284 284 282 282 281 283 284 285 285 285 285 286 286 288 289 289 289 288 288 289 290 289 290 291 292 290 289 287 287 287 287 287 287 286 286 286
242 243 246 251 258 259 260 269 275 277 277 277 279 283 284 281 281 280 280 280 282 284 287 286 285 285 286 287 288 289 288 285 285 285 286 288 289 289 289 288 287 286 286 286 287 287 286 286 286
Height
5902 5902 5902 5903 5903 5903 5902 5901 5899 5898 5897 5895 5893 5892 5891 5890 5890 5891 5887 5884 5883 5882 5880 5879 5877 5876 5873 5871 5869 5866 5866 5867 5869 5870 5870 5870 5870 5869 5869 5869 5869 5869 5869 5869 5869 5870 5871 5873 5875
5903 5903 5904 5905 5904 5905 5904 5902 5900 5899 5897 5895 5894 5893 5892 5890 5890 5888 5886 5885 5884 5883 5881 5880 5878 5877 5874 5873 5870 5869 5868 5869 5870 5870 5870 5871 5870 5870 5869 5869 5869 5869 5869 5869 5869 5871 5872 5873 5875
5905 5905 5906 5906 5906 5906 5905 5903 5901 5900 5898 5896 5895 5894 5893 5891 5890 5888 5887 5886 5885 5883 5882 5881 5880 5878 5876 5874 5872 5871 5871 5871 5871 5871 5871 5871 5871 5869 5868 5869 5869 5869 5869 5869 5870 5871 5872 5874 5875
5907 5907 5908 5908 5907 5907 5905 5904 5902 5900 5899 5898 5896 5895 5893 5892 5890 5889 5888 5887 5886 5884 5883 5882 5881 5879 5878 5876 5874 5873 5872 5872 5872 5872 5872 5872 5871 5870 5868 5868 5869 5869 5869 5869 5870 5872 5872 5874 5876
5908 5909 5910 5910 5909 5908 5907 5905 5903 5902 5900 5899 5897 5895 5894 5893 5891 5890 5889 5888 5886 5885 5884 5883 5882 5880 5879 5878 5877 5875 5874 5874 5874 5874 5874 5873 5871 5870 5868 5868 5868 5868 5869 5870 5871 5872 5873 5874 5876
5910 5911 5913 5912 5910 5909 5908 5906 5904 5903 5902 5900 5898 5897 5895 5894 5892 5891 5889 5888 5887 5886 5885 5883 5882 5881 5880 5879 5879 5877 5877 5877 5876 5876 5875 5874 5872 5869 5866 5867 5868 5868 5869 5870 5871 5872 5873 5875 5876
5912 5913 5913 5913 5912 5911 5909 5908 5906 5904 5903 5901 5900 5898 5896 5895 5894 5892 5890 5889 5888 5886 5885 5884 5883 5882 5881 5881 5880 5879 5879 5879 5878 5877 5876 5875 5873 5869 5865 5866 5866 5867 5868 5870 5871 5873 5873 5874 5875
5913 5914 5914 5914 5913 5912 5911 5909 5907 5906 5904 5903 5901 5899 5898 5897 5895 5893 5892 5890 5889 5888 5887 5885 5884 5883 5883 5882 5882 5881 5881 5880 5879 5879 5878 5877 5875 5872 5869 5867 5867 5867 5868 5870 5872 5874 5874 5874 5874
5914 5917 5916 5915 5914 5913 5912 5910 5909 5907 5905 5904 5902 5901 5899 5898 5896 5895 5893 5892 5890 5889 5888 5887 5886 5885 5884 5884 5883 5883 5882 5882 5881 5880 5879 5879 5877 5875 5873 5872 5871 5870 5871 5872 5874 5875 5875 5874 5874
5916 5917 5916 5916 5915 5914 5913 5911 5910 5908 5906 5905 5904 5902 5901 5899 5898 5897 5895 5893 5892 5891 5889 5888 5887 5886 5886 5886 5885 5885 5884 5883 5882 5882 5881 5880 5879 5878 5877 5876 5875 5874 5874 5875 5876 5877 5877 5876 5876
5917 5917 5917 5916 5916 5915 5914 5912 5911 5909 5908 5906 5905 5904 5902 5901 5900 5898 5897 5895 5894 5892 5891 5890 5889 5888 5888 5887 5887 5886 5885 5885 5884 5883 5882 5882 5881 5880 5879 5879 5878 5878 5877 5877 5878 5878 5879 5879 5879
5918 5918 5918 5917 5917 5916 5915 5914 5912 5910 5909 5907 5906 5905 5904 5903 5901 5900 5899 5897 5895 5894 5893 5892 5891 5890 5889 5888 5888 5887 5887 5886 5886 5885 5884 5884 5883 5882 5881 5880 5880 5879 5879 5879 5879 5880 5880 5880 5880
5919 5919 5918 5918 5918 5917 5916 5915 5913 5912 5910 5909 5907 5906 5905 5904 5903 5901 5900 5899 5897 5896 5895 5894 5893 5892 5891 5890 5889 5889 5888 5888 5887 5886 5885 5885 5884 5883 5882 5882 5881 5881 5881 5881 5881 5881 5881 5881 5881
5920 5919 5919 5919 5919 5918 5917 5916 5915 5913 5912 5911 5909 5908 5907 5905 5904 5903 5901 5900 5899 5898 5897 5895 5894 5893 5892 5891 5891 5890 5889 5889 5888 5887 5887 5886 5885 5884 5883 5883 5882 5882 5882 5882 5882 5882 5882 5882 5882
5920 5920 5920 5920 5920 5919 5919 5918 5916 5915 5913 5912 5911 5909 5908 5907 5906 5904 5903 5902 5900 5899 5898 5897 5896 5895 5894 5893 5892 5891 5890 5890 5889 5888 5888 5887 5886 5886 5885 5884 5883 5883 5883 5883 5883 5883 5883 5883 5883
5920 5921 5922 5921 5920 5920 5921 5920 5917 5916 5914 5913 5912 5911 5909 5908 5907 5906 5904 5903 5902 5900 5899 5898 5897 5896 5895 5894 5893 5892 5891 5891 5890 5889 5889 5888 5888 5887 5886 5885 5885 5884 5884 5884 5884 5884 5884 5884 5883
5921 5922 5922 5922 5921 5920 5920 5919 5918 5917 5915 5914 5912 5911 5910 5909 5908 5907 5905 5904 5903 5902 5900 5899 5898 5897 5896 5895 5894 5893 5892 5892 5891 5890 5889 5889 5888 5888 5887 5886 5886 5885 5885 5885 5884 5884 5884 5883 5883
5921 5922 5921 5921 5920 5920 5920 5919 5918 5917 5916 5914 5913 5912 5911 5910 5909 5908 5906 5905 5904 5903 5902 5900 5899 5898 5897 5896 5895 5894 5893 5893 5892 5891 5890 5889 5888 5888 5887 5887 5886 5886 5885 5885 5885 5884 5884 5883 5883
5919 5919 5920 5920 5919 5919 5919 5919 5918 5917 5916 5915 5914 5913 5911 5910 5909 5908 5907 5906 5905 5903 5902 5901 5900 5899 5898 5896 5896 5895 5894 5893 5892 5891 5891 5890 5889 5888 5887 5887 5886 5886 5886 5885 5885 5884 5884 5884 5883
5917 5918 5919 5919 5918 5919 5918 5918 5917 5916 5916 5915 5914 5913 5912 5910 5909 5908 5907 5906 5905 5904 5902 5901 5900 5899 5898 5897 5896 5895 5894 5893 5892 5891 5890 5890 5889 5887 5887 5887 5886 5886 5885 5885 5885 5884 5884 5883 5883
5915 5917 5917 5917 5917 5918 5918 5918 5917 5916 5915 5914 5913 5913 5911 5910 5909 5908 5907 5905 5904 5903 5902 5901 5900 5899 5898 5897 5896 5895 5894 5893 5892 5891 5890 5889 5888 5887 5886 5886 5885 5885 5884 5884 5884 5883 5883 5883 5882
5914 5914 5915 5916 5916 5917 5917 5918 5916 5915 5914 5913 5913 5912 5911 5910 5908 5907 5906 5905 5904 5903 5901 5901 5899 5899 5897 5896 5895 5894 5893 5892 5891 5890 5889 5888 5887 5886 5885 5885 5884 5884 5883 5883 5882 5882 5881 5881 5880
5912 5912 5913 5914 5915 5916 5916 5916 5916 5914 5913 5912 5911 5910 5910 5908 5907 5906 5905 5904 5903 5902 5901 5900 5899 5898 5897 5896 5895 5894 5893 5892 5890 5889 5888 5887 5886 5885 5884 5883 5883 5882 5881 5881 5881 5880 5879 5878 5878
5909 5911 5911 5912 5913 5914 5914 5914 5914 5912 5911 5911 5910 5909 5908 5907 5905 5904 5903 5902 5901 5901 5900 5898 5897 5896 5895 5894 5893 5893 5891 5890 5889 5888 5886 5885 5884 5883 5883 5882 5881 5880 5879 5878 5878 5877 5876 5876 5875
5907 5910 5912 5912 5913 5913 5912 5911 5912 5910 5909 5908 5908 5906 5905 5905 5904 5902 5901 5901 5900 5899 5898 5897 5896 5894 5893 5892 5891 5891 5889 5888 5887 5885 5884 5883 5882 5881 5880 5879 5878 5877 5876 5875 5875 5874 5873 5872 5872
5905 5907 5910 5912 5912 5911 5909 5909 5909 5908 5907 5906 5905 5904 5903 5902 5901 5900 5899 5898 5898 5897 5896 5895 5894 5892 5891 5890 5889 5888 5887 5886 5884 5883 5882 5880 5879 5878 5877 5876 5875 5874 5873 5872 5871 5870 5869 5869 5868
5901 5903 5906 5907 5907 5908 5908 5906 5906 5905 5904 5903 5902 5901 5900 5900 5899 5898 5897 5896 5895 5894 5893 5892 5891 5890 5889 5888 5887 5885 5884 5883 5881 5880 5879 5877 5876 5875 5874 5873 5872 5870 5869 5868 5867 5866 5865 5865 5864
5898 5900 5902 5904 5904 5905 5905 5904 5904 5902 5901 5900 5899 5898 5898 5897 5896 5895 5894 5893 5892 5891 5890 5889 5888 5887 5886 5885 5884 5882 5881 5879 5878 5876 5875 5874 5873 5871 5870 5869 5867 5866 5865 5864 5863 5862 5861 5860 5859
5895 5896 5897 5899 5900 5902 5903 5904 5900 5898 5898 5897 5896 5895 5894 5893 5892 5892 5891 5890 5889 5888 5887 5886 5885 5884 5882 5881 5880 5878 5877 5875 5874 5872 5871 5870 5868 5867 5866 5864 5863 5862 5861 5859 5858 5857 5856 5855 5854
5890 5892 5893 5896 5895 5896 5898 5901 5895 5894 5894 5893 5892 5891 5890 5889 5889 5888 5887 5886 5885 5884 5882 5881 5880 5879 5878 5877 5875 5874 5872 5871 5869 5868 5867 5865 5864 5862 5861 5860 5859 5857 5856 5854 5853 5852 5851 5849 5848